Flag for U.S.A. Weather past 2 weeks in Evansville, Indiana, U.S.A.

Now
37 °F

Light rain. Fog.


Feels Like: 31 °F
Forecast: 22 / 42 °F
Wind: 8 mph from Northeast

Location: Evansville Regional Airport

Current Time: Mar 4, 2015 at 5:29:34 AM

Latest Report: Mar 4, 2015 at 4:54 AM


Visibility: 6 mi

Pressure: 29.97 "Hg

Humidity: 86%

Dew point: 33 °F

Location of EvansvilleLocation

Historic Weather in Evansville — Graph

°F

Evansville temperature yesterday

Maximum temperature yesterday: 52 °F (at 3:54 PM)
Minimum temperature yesterday: 34 °F (at 12:54 AM)
Average temperature yesterday: 43 °F

Past Weeks' High & Low Weather Summary

 TemperatureHumidityPressure
High52 °F (Mar 3, 3:54 PM)93% (Mar 3, 11:54 AM)30.73 "Hg (Mar 3, 11:54 AM)
Low-5 °F (Feb 20, 2:54 AM)37% (Feb 19, 11:54 AM)29.83 "Hg (Mar 3, 3:02 PM)
Average24 °F67%30.28 "Hg
* Reported Feb 17 3:54 AM — Mar 4 3:54 AM, Evansville, Weather by CustomWeather, © 2015

Note: Actual official high and low records may vary slightly from our data, if they occured in-between our weather recording intervals... More about our weather records

Advertising

Evansville weather history for previous 24 hours

 ConditionsComfort  
Time TempWeatherWind HumidityBarometerVisibility
3:54 AM
Wed, Mar 4
39 °FLight rain. Fog.12 mph89%29.92 "Hg6 mi
2:54 AM41 °FRain. Fog.5 mph89%29.93 "Hg4 mi
1:54 AM42 °FRain. Fog.3 mph92%29.92 "Hg4 mi
1:04 AM43 °FHeavy rain. Fog.6 mph89%29.92 "Hg2 mi
12:54 AM43 °FRain. Fog.7 mph89%29.93 "Hg4 mi
11:54 PM
Tue, Mar 3
44 °FLight rain. Overcast.3 mph89%29.91 "Hg7 mi
10:54 PM45 °FLight rain. Fog.5 mph90%29.93 "Hg5 mi
10:02 PM45 °FRain. Fog.9 mph90%29.90 "Hg4 mi
9:54 PM46 °FRain. Fog.7 mph86%29.92 "Hg4 mi
8:54 PM47 °FRain. Fog.7 mph90%29.93 "Hg3 mi
7:54 PM47 °FRain. Fog.7 mph93%29.90 "Hg4 mi
6:54 PM49 °FRain. Fog.7 mph90%29.89 "Hg6 mi
5:54 PM50 °FFog.13 mph89%29.87 "Hg3 mi
4:54 PM51 °FLight rain. Fog.10 mph92%29.85 "Hg3 mi
3:54 PM52 °FRain. Fog.10 mph93%29.84 "Hg2 mi
3:02 PM50 °FRain. Fog.14 mph93%29.83 "Hg1 mi
2:54 PM50 °FLight rain. Fog.15 mph93%29.83 "Hg1 mi
2:03 PM48 °FFog.16 mph93%29.84 "Hg1 mi
12:54 PM46 °FRain. Fog.13 mph93%29.88 "Hg1 mi
11:54 AM46 °FLight rain. Fog.15 mph93%29.91 "Hg1 mi
10:54 AM45 °FFog.13 mph90%29.93 "Hg4 mi
9:54 AM43 °FFog.13 mph89%29.95 "Hg5 mi
8:54 AM40 °FLow clouds.12 mph83%29.98 "Hg8 mi
7:54 AM37 °FLight rain. Overcast.7 mph79%30.02 "Hg6 mi
7:04 AM35 °FLight rain. Overcast.6 mph78%30.03 "Hg5 mi
6:53 AM36 °FLight rain. Overcast.5 mph70%30.04 "Hg2 mi
5:54 AM36 °FOvercast.7 mph64%30.07 "Hg10 mi
Weather by CustomWeather, © 2015

See weather overviewHow to use our weather pages